Grand Marais, MN

10:13 AM CDT on April 25, 2018 (GMT -0500)
Grand Marais

Weather History for KGNA - November, 2012

Change the Weather History Date:

Wednesday, November 28, 2012

  Actual Average (KCKC) Record (KCKC)
Temperature  
Mean Temperature 18 °F -  
Max Temperature 28 °F 27 °F 66 °F (2003)
Min Temperature 9 °F 15 °F -5 °F (2014)
Degree Days  
Heating Degree Days 46    
Moisture  
Dew Point 11 °F    
Average Humidity 69    
Maximum Humidity 81    
Minimum Humidity 60    
Precipitation  
Precipitation 0.00 in - - ()
Sea Level Pressure  
Sea Level Pressure 30.22 in    
Wind  
Wind Speed 5 mph (West)    
Max Wind Speed 9 mph    
Max Gust Speed 21 mph    
Averages and records for this station are not official NWS values.
T = Trace of Precipitation, MM = Missing Value Source: NWS Daily Summary

Daily Weather History Graph

Daily Weather History Graph

Search for Another Location

Airport or City:

Astronomy

Nov. 28, 2012 Rise Set
Actual Time 7:26 AM CST 4:12 PM CST
Civil Twilight 6:50 AM CST 4:47 PM CST
Nautical Twilight 6:12 AM CST 5:26 PM CST
Astronomical Twilight 5:35 AM CST 6:03 PM CST
Moon 4:27 PM CST (11/28) 7:23 AM CST (11/28)
Length of Visible Light 9h 56m
Length of Day
8h 46m
Full, 100% of the Moon is Illuminated
Nov 28
Full
Dec 6
Last Quarter
Dec 13
New
Dec 19
First Quarter
Dec 28
Full

Hourly Weather History & Observations

Time (CST) Temp. Windchill Dew Point Humidity Pressure Visibility Wind Dir Wind Speed Gust Speed Precip Events Conditions
12:56 AM 16.0 °F 6.3 °F 6.1 °F 65% 30.22 in - Variable 6.9 mph - N/A   Unknown
1:56 AM 16.0 °F 7.4 °F 6.1 °F 65% 30.25 in - Variable 5.8 mph - N/A   Unknown
2:56 AM 15.1 °F - 5.0 °F 64% 30.26 in - Calm Calm - N/A   Unknown
3:56 AM 12.9 °F 6.9 °F 3.9 °F 67% 30.28 in - Variable 3.5 mph - N/A   Unknown
4:56 AM 10.9 °F - 6.1 °F 81% 30.29 in - Calm Calm - N/A   Unknown
5:56 AM 9.0 °F 2.4 °F 3.0 °F 77% 30.31 in - WNW 3.5 mph - N/A   Unknown
6:56 AM 9.0 °F 2.4 °F 3.0 °F 77% 30.32 in - NW 3.5 mph - N/A   Unknown
7:56 AM 10.0 °F 0.4 °F 3.0 °F 73% 30.32 in - West 5.8 mph - N/A   Unknown
8:56 AM 15.1 °F 5.2 °F 6.1 °F 68% 30.32 in - West 6.9 mph - N/A   Unknown
9:56 AM 16.0 °F 6.3 °F 7.0 °F 68% 30.33 in - Variable 6.9 mph 16.1 mph N/A   Unknown
10:56 AM 17.1 °F 6.6 °F 6.1 °F 62% 30.31 in - West 8.1 mph - N/A   Unknown
11:56 AM 19.0 °F 9.0 °F 10.0 °F 68% 30.27 in - WSW 8.1 mph 18.4 mph N/A   Unknown
12:56 PM 19.9 °F 12.1 °F 9.0 °F 62% 30.25 in - Variable 5.8 mph - N/A   Unknown
1:56 PM 21.0 °F 16.2 °F 9.0 °F 60% 30.22 in - West 3.5 mph - N/A   Unknown
2:56 PM 21.0 °F 16.2 °F 9.0 °F 60% 30.18 in - Variable 3.5 mph - N/A   Unknown
3:56 PM 23.0 °F 13.9 °F 12.0 °F 63% 30.14 in - West 8.1 mph - N/A   Unknown
4:56 PM 24.1 °F 17.0 °F 15.1 °F 69% 30.12 in - Variable 5.8 mph - N/A   Unknown
5:56 PM 25.0 °F 16.3 °F 18.0 °F 75% 30.11 in - West 8.1 mph - N/A   Unknown
6:56 PM 28.0 °F 19.3 °F 19.9 °F 72% 30.12 in - West 9.2 mph 20.7 mph N/A   Unknown
7:56 PM 28.0 °F 24.2 °F 19.0 °F 69% 30.12 in - Variable 3.5 mph - N/A   Unknown
8:56 PM 27.0 °F - 19.9 °F 75% 30.12 in - Calm Calm - N/A   Unknown
9:56 PM 28.0 °F - 19.9 °F 72% 30.12 in - Calm Calm - N/A   Unknown
10:56 PM 28.9 °F 25.2 °F 21.9 °F 75% 30.13 in - West 3.5 mph - N/A   Unknown
11:56 PM 28.9 °F - 21.9 °F 75% 30.14 in - Calm Calm - N/A   Unknown